Time,TemperatureF,DewpointF,PressureIn,WindDirection,WindDirectionDegrees,WindSpeedMPH,WindSpeedGustMPH,Humidity,HourlyPrecipIn,Conditions,Clouds,dailyrainin,SoftwareType,DateUTC
2013-03-05 00:07:00,44.0,37.9,30.07,NE,45,0.0,9.0,79,0.00,,,0.00,Weather View 32 v70,2013-03-05 08:07:00,
2013-03-05 00:12:00,44.0,37.9,30.07,NE,45,0.0,9.0,79,0.00,,,0.00,Weather View 32 v70,2013-03-05 08:12:00,
2013-03-05 00:17:00,44.0,38.9,30.07,NE,45,0.0,9.0,82,0.00,,,0.00,Weather View 32 v70,2013-03-05 08:17:00,
2013-03-05 00:22:00,44.0,37.9,30.07,NE,45,0.0,9.0,79,0.00,,,0.00,Weather View 32 v70,2013-03-05 08:22:00,
2013-03-05 00:27:00,43.0,37.2,30.07,NE,45,0.0,9.0,80,0.00,,,0.00,Weather View 32 v70,2013-03-05 08:27:00,
2013-03-05 00:32:00,43.0,37.2,30.07,NE,45,0.0,9.0,80,0.00,,,0.00,Weather View 32 v70,2013-03-05 08:32:00,
2013-03-05 00:37:00,42.0,36.3,30.07,NE,45,0.0,9.0,80,0.00,,,0.00,Weather View 32 v70,2013-03-05 08:37:00,
2013-03-05 00:41:00,42.0,36.3,30.07,NE,45,0.0,9.0,80,0.00,,,0.00,Weather View 32 v70,2013-03-05 08:41:00,
2013-03-05 00:42:00,42.0,36.3,30.08,NE,45,0.0,9.0,80,0.00,,,0.00,Weather View 32 v70,2013-03-05 08:42:00,
2013-03-05 00:52:00,42.0,37.2,30.08,NE,45,0.0,9.0,83,0.00,,,0.00,Weather View 32 v70,2013-03-05 08:52:00,
2013-03-05 00:57:00,41.0,35.3,30.08,NE,45,0.0,6.0,80,0.00,,,0.00,Weather View 32 v70,2013-03-05 08:57:00,
2013-03-05 01:02:00,42.0,36.3,30.08,NE,45,0.0,4.0,80,0.00,,,0.00,Weather View 32 v70,2013-03-05 09:02:00,
2013-03-05 01:07:00,42.0,36.3,30.08,NE,45,0.0,3.0,80,0.00,,,0.00,Weather View 32 v70,2013-03-05 09:07:00,
2013-03-05 01:12:00,43.0,37.2,30.08,NE,45,0.0,2.0,80,0.00,,,0.00,Weather View 32 v70,2013-03-05 09:12:00,
2013-03-05 01:16:00,42.0,36.3,30.07,NE,45,0.0,2.0,80,0.00,,,0.00,Weather View 32 v70,2013-03-05 09:16:00,
2013-03-05 01:21:00,42.0,36.3,30.08,NE,45,0.0,2.0,80,0.00,,,0.00,Weather View 32 v70,2013-03-05 09:21:00,
2013-03-05 01:31:00,42.0,36.3,30.09,NE,45,0.0,2.0,80,0.00,,,0.00,Weather View 32 v70,2013-03-05 09:31:00,
2013-03-05 01:36:00,42.0,36.3,30.09,NE,45,0.0,2.0,80,0.00,,,0.00,Weather View 32 v70,2013-03-05 09:36:00,
2013-03-05 01:42:00,42.0,36.3,30.07,NE,45,0.0,2.0,80,0.00,,,0.00,Weather View 32 v70,2013-03-05 09:42:00,
2013-03-05 01:46:00,43.0,37.2,30.07,NE,45,0.0,2.0,80,0.00,,,0.00,Weather View 32 v70,2013-03-05 09:46:00,
2013-03-05 01:51:00,43.0,37.2,30.08,NNE,22,0.0,3.0,80,0.00,,,0.00,Weather View 32 v70,2013-03-05 09:51:00,
2013-03-05 01:56:00,43.0,37.2,30.08,NE,45,2.0,4.0,80,0.00,,,0.00,Weather View 32 v70,2013-03-05 09:56:00,
2013-03-05 02:03:00,44.0,37.9,30.07,NE,45,0.0,4.0,79,0.00,,,0.00,Weather View 32 v70,2013-03-05 10:03:00,
2013-03-05 02:07:00,44.0,37.9,30.07,NE,45,0.0,4.0,79,0.00,,,0.00,Weather View 32 v70,2013-03-05 10:07:00,
2013-03-05 02:12:00,44.0,37.9,30.07,NE,45,0.0,4.0,79,0.00,,,0.00,Weather View 32 v70,2013-03-05 10:12:00,
2013-03-05 02:17:00,44.0,37.9,30.07,NE,45,0.0,4.0,79,0.00,,,0.00,Weather View 32 v70,2013-03-05 10:17:00,
2013-03-05 02:27:00,44.0,37.9,30.07,NE,45,1.0,7.0,79,0.00,,,0.00,Weather View 32 v70,2013-03-05 10:27:00,
2013-03-05 02:32:00,44.0,37.9,30.06,NE,45,0.0,7.0,79,0.00,,,0.00,Weather View 32 v70,2013-03-05 10:32:00,
2013-03-05 02:37:00,45.0,39.8,30.06,NE,45,4.0,7.0,82,0.00,,,0.00,Weather View 32 v70,2013-03-05 10:37:00,
2013-03-05 02:42:00,45.0,38.9,30.06,NE,45,0.0,7.0,79,0.00,,,0.00,Weather View 32 v70,2013-03-05 10:42:00,
2013-03-05 02:43:00,45.0,38.9,30.06,NE,45,0.0,7.0,79,0.00,,,0.00,Weather View 32 v70,2013-03-05 10:43:00,
2013-03-05 02:47:00,45.0,38.9,30.06,NE,45,0.0,7.0,79,0.00,,,0.00,Weather View 32 v70,2013-03-05 10:47:00,
2013-03-05 02:52:00,44.0,37.9,30.07,NE,45,0.0,7.0,79,0.00,,,0.00,Weather View 32 v70,2013-03-05 10:52:00,
2013-03-05 02:57:00,44.0,37.9,30.07,NE,45,1.0,7.0,79,0.00,,,0.00,Weather View 32 v70,2013-03-05 10:57:00,
2013-03-05 03:02:00,44.0,37.9,30.07,NE,45,0.0,7.0,79,0.00,,,0.00,Weather View 32 v70,2013-03-05 11:02:00,
2013-03-05 03:07:00,44.0,37.9,30.07,NE,45,4.0,7.0,79,0.00,,,0.00,Weather View 32 v70,2013-03-05 11:07:00,
2013-03-05 03:12:00,44.0,38.9,30.06,NE,45,0.0,9.0,82,0.00,,,0.00,Weather View 32 v70,2013-03-05 11:12:00,
2013-03-05 03:17:00,44.0,37.9,30.06,NE,45,0.0,9.0,79,0.00,,,0.00,Weather View 32 v70,2013-03-05 11:17:00,
2013-03-05 03:22:00,44.0,37.9,30.07,NE,45,0.0,9.0,79,0.00,,,0.00,Weather View 32 v70,2013-03-05 11:22:00,
2013-03-05 03:27:00,43.0,36.9,30.06,NE,45,0.0,9.0,79,0.00,,,0.00,Weather View 32 v70,2013-03-05 11:27:00,
2013-03-05 03:32:00,43.0,36.9,30.06,NE,45,0.0,9.0,79,0.00,,,0.00,Weather View 32 v70,2013-03-05 11:32:00,
2013-03-05 03:37:00,43.0,37.2,30.07,NE,45,0.0,9.0,80,0.00,,,0.00,Weather View 32 v70,2013-03-05 11:37:00,
2013-03-05 03:42:00,43.0,37.2,30.06,NE,45,0.0,9.0,80,0.00,,,0.00,Weather View 32 v70,2013-03-05 11:42:00,
2013-03-05 03:43:00,43.0,37.2,30.06,NE,45,0.0,9.0,80,0.00,,,0.00,Weather View 32 v70,2013-03-05 11:43:00,
2013-03-05 03:47:00,43.0,38.2,30.07,NE,45,0.0,9.0,83,0.00,,,0.00,Weather View 32 v70,2013-03-05 11:47:00,
2013-03-05 03:52:00,43.0,37.2,30.07,NE,45,0.0,9.0,80,0.00,,,0.00,Weather View 32 v70,2013-03-05 11:52:00,
2013-03-05 03:57:00,42.0,36.3,30.06,NE,45,0.0,9.0,80,0.00,,,0.00,Weather View 32 v70,2013-03-05 11:57:00,
2013-03-05 04:02:00,43.0,37.2,30.07,NE,45,0.0,9.0,80,0.00,,,0.00,Weather View 32 v70,2013-03-05 12:02:00,
2013-03-05 04:07:00,43.0,37.2,30.07,NE,45,0.0,9.0,80,0.00,,,0.00,Weather View 32 v70,2013-03-05 12:07:00,
2013-03-05 04:17:00,43.0,37.2,30.07,NE,45,0.0,2.0,80,0.00,,,0.00,Weather View 32 v70,2013-03-05 12:17:00,
2013-03-05 04:22:00,43.0,38.2,30.07,NE,45,0.0,2.0,83,0.00,,,0.00,Weather View 32 v70,2013-03-05 12:22:00,
2013-03-05 04:32:00,43.0,37.2,30.07,NE,45,0.0,2.0,80,0.00,,,0.00,Weather View 32 v70,2013-03-05 12:32:00,
2013-03-05 04:37:00,42.0,36.3,30.07,NE,45,0.0,2.0,80,0.00,,,0.00,Weather View 32 v70,2013-03-05 12:37:00,
2013-03-05 04:42:00,42.0,36.3,30.07,NE,45,0.0,2.0,80,0.00,,,0.00,Weather View 32 v70,2013-03-05 12:42:00,
2013-03-05 04:43:00,42.0,36.3,30.07,NE,45,0.0,2.0,80,0.00,,,0.00,Weather View 32 v70,2013-03-05 12:43:00,
2013-03-05 04:47:00,43.0,37.2,30.07,NE,45,0.0,2.0,80,0.00,,,0.00,Weather View 32 v70,2013-03-05 12:47:00,
2013-03-05 04:56:00,43.0,38.2,30.07,NE,45,2.0,4.0,83,0.00,,,0.00,Weather View 32 v70,2013-03-05 12:56:00,
2013-03-05 05:01:00,43.0,37.2,30.07,NE,45,0.0,5.0,80,0.00,,,0.00,Weather View 32 v70,2013-03-05 13:01:00,
2013-03-05 05:06:00,43.0,37.2,30.07,NE,45,0.0,5.0,80,0.00,,,0.00,Weather View 32 v70,2013-03-05 13:06:00,
2013-03-05 05:11:00,43.0,37.2,30.07,NE,45,0.0,5.0,80,0.00,,,0.00,Weather View 32 v70,2013-03-05 13:11:00,
2013-03-05 05:16:00,43.0,37.2,30.07,NE,45,0.0,5.0,80,0.00,,,0.00,Weather View 32 v70,2013-03-05 13:16:00,
2013-03-05 05:21:00,43.0,37.2,30.07,NE,45,0.0,5.0,80,0.00,,,0.00,Weather View 32 v70,2013-03-05 13:21:00,
2013-03-05 05:26:00,43.0,37.2,30.07,NE,45,0.0,5.0,80,0.00,,,0.00,Weather View 32 v70,2013-03-05 13:26:00,
2013-03-05 05:31:00,44.0,39.2,30.07,NE,45,0.0,5.0,83,0.00,,,0.00,Weather View 32 v70,2013-03-05 13:31:00,
2013-03-05 05:36:00,44.0,37.9,30.07,NE,45,0.0,5.0,79,0.00,,,0.00,Weather View 32 v70,2013-03-05 13:36:00,
2013-03-05 05:41:00,43.0,36.9,30.06,NE,45,0.0,5.0,79,0.00,,,0.00,Weather View 32 v70,2013-03-05 13:41:00,
2013-03-05 05:46:00,43.0,37.9,30.07,NE,45,0.0,5.0,82,0.00,,,0.00,Weather View 32 v70,2013-03-05 13:46:00,
2013-03-05 05:51:00,43.0,37.2,30.07,NE,45,0.0,5.0,80,0.00,,,0.00,Weather View 32 v70,2013-03-05 13:51:00,
2013-03-05 05:56:00,43.0,37.2,30.07,NE,45,0.0,5.0,80,0.00,,,0.00,Weather View 32 v70,2013-03-05 13:56:00,
2013-03-05 06:01:00,44.0,37.9,30.06,NE,45,0.0,2.0,79,0.00,,,0.00,Weather View 32 v70,2013-03-05 14:01:00,
2013-03-05 06:07:00,43.0,36.9,30.06,NE,45,0.0,2.0,79,0.00,,,0.00,Weather View 32 v70,2013-03-05 14:07:00,
2013-03-05 06:12:00,43.0,36.9,30.06,NE,45,0.0,2.0,79,0.00,,,0.00,Weather View 32 v70,2013-03-05 14:12:00,
2013-03-05 06:17:00,43.0,36.3,30.07,NE,45,0.0,2.0,77,0.00,,,0.00,Weather View 32 v70,2013-03-05 14:17:00,
2013-03-05 06:27:00,42.0,30.7,30.07,NE,45,0.0,2.0,64,0.00,,,0.00,Weather View 32 v70,2013-03-05 14:27:00,
2013-03-05 06:32:00,42.0,30.3,30.07,NE,45,0.0,2.0,63,0.00,,,0.00,Weather View 32 v70,2013-03-05 14:32:00,
2013-03-05 06:42:00,43.0,25.6,30.07,NE,45,1.0,3.0,50,0.00,,,0.00,Weather View 32 v70,2013-03-05 14:42:00,
2013-03-05 06:45:00,43.0,25.6,30.07,NE,45,1.0,3.0,50,0.00,,,0.00,Weather View 32 v70,2013-03-05 14:45:00,
2013-03-05 06:47:00,43.0,30.5,30.07,NE,45,0.0,4.0,61,0.00,,,0.00,Weather View 32 v70,2013-03-05 14:47:00,
2013-03-05 06:52:00,43.0,30.0,30.07,NE,45,1.0,4.0,60,0.00,,,0.00,Weather View 32 v70,2013-03-05 14:52:00,
2013-03-05 06:57:00,43.0,29.6,30.07,NE,45,0.0,4.0,59,0.00,,,0.00,Weather View 32 v70,2013-03-05 14:57:00,
2013-03-05 07:02:00,44.0,30.2,30.07,NE,45,0.0,4.0,58,0.00,,,0.00,Weather View 32 v70,2013-03-05 15:02:00,
2013-03-05 07:07:00,44.0,29.7,30.07,NE,45,0.0,4.0,57,0.00,,,0.00,Weather View 32 v70,2013-03-05 15:07:00,
2013-03-05 07:17:00,45.0,-50.3,30.06,NE,45,0.0,4.0,1,0.00,,,0.00,Weather View 32 v70,2013-03-05 15:17:00,
2013-03-05 07:27:00,46.0,30.3,30.05,NE,45,0.0,4.0,54,0.00,,,0.00,Weather View 32 v70,2013-03-05 15:27:00,
2013-03-05 07:32:00,46.0,29.8,30.06,NE,45,2.0,5.0,53,0.00,,,0.00,Weather View 32 v70,2013-03-05 15:32:00,
2013-03-05 07:42:00,47.0,30.7,30.05,NE,45,0.0,7.0,53,0.00,,,0.00,Weather View 32 v70,2013-03-05 15:42:00,
2013-03-05 07:47:00,47.0,30.7,30.05,NE,45,0.0,7.0,53,0.00,,,0.00,Weather View 32 v70,2013-03-05 15:47:00,
2013-03-05 07:52:00,48.0,-48.4,30.05,NE,45,1.0,7.0,1,0.00,,,0.00,Weather View 32 v70,2013-03-05 15:52:00,
2013-03-05 07:57:00,48.0,30.2,30.05,NE,45,1.0,7.0,50,0.00,,,0.00,Weather View 32 v70,2013-03-05 15:57:00,
2013-03-05 08:02:00,49.0,31.1,30.04,ENE,67,0.0,7.0,50,0.00,,,0.00,Weather View 32 v70,2013-03-05 16:02:00,
2013-03-05 08:07:00,49.0,31.1,30.04,NE,45,0.0,7.0,50,0.00,,,0.00,Weather View 32 v70,2013-03-05 16:07:00,
2013-03-05 08:12:00,50.0,33.5,30.04,ENE,67,5.0,7.0,53,0.00,,,0.00,Weather View 32 v70,2013-03-05 16:12:00,
2013-03-05 08:17:00,50.0,31.6,30.04,NE,45,2.0,7.0,49,0.00,,,0.00,Weather View 32 v70,2013-03-05 16:17:00,
2013-03-05 08:22:00,51.0,32.0,30.04,NE,45,0.0,7.0,48,0.00,,,0.00,Weather View 32 v70,2013-03-05 16:22:00,
2013-03-05 08:27:00,51.0,-46.6,30.04,ENE,67,0.0,7.0,1,0.00,,,0.00,Weather View 32 v70,2013-03-05 16:27:00,
2013-03-05 08:32:00,51.0,32.0,30.04,ENE,67,0.0,7.0,48,0.00,,,0.00,Weather View 32 v70,2013-03-05 16:32:00,
2013-03-05 08:37:00,51.0,32.5,30.04,ENE,67,0.0,7.0,49,0.00,,,0.00,Weather View 32 v70,2013-03-05 16:37:00,
2013-03-05 08:42:00,52.0,32.9,30.04,ENE,67,5.0,7.0,48,0.00,,,0.00,Weather View 32 v70,2013-03-05 16:42:00,
2013-03-05 08:46:00,52.0,32.9,30.04,ENE,67,5.0,7.0,48,0.00,,,0.00,Weather View 32 v70,2013-03-05 16:46:00,
2013-03-05 08:51:00,52.0,33.4,30.03,ENE,67,1.0,7.0,49,0.00,,,0.00,Weather View 32 v70,2013-03-05 16:51:00,
2013-03-05 08:56:00,52.0,32.9,30.04,ENE,67,3.0,7.0,48,0.00,,,0.00,Weather View 32 v70,2013-03-05 16:56:00,
2013-03-05 09:01:00,53.0,-45.3,30.03,ENE,67,0.0,7.0,1,0.00,,,0.00,Weather View 32 v70,2013-03-05 17:01:00,
2013-03-05 09:06:00,54.0,34.2,30.03,NE,45,0.0,7.0,47,0.00,,,0.00,Weather View 32 v70,2013-03-05 17:06:00,
2013-03-05 09:11:00,55.0,35.1,30.03,NE,45,2.0,7.0,47,0.00,,,0.00,Weather View 32 v70,2013-03-05 17:11:00,
2013-03-05 09:16:00,55.0,35.6,30.02,NE,45,0.0,7.0,48,0.00,,,0.00,Weather View 32 v70,2013-03-05 17:16:00,
2013-03-05 09:21:00,55.0,35.6,30.02,NE,45,6.0,7.0,48,0.00,,,0.00,Weather View 32 v70,2013-03-05 17:21:00,
2013-03-05 09:26:00,54.0,34.2,30.02,NE,45,4.0,7.0,47,0.00,,,0.00,Weather View 32 v70,2013-03-05 17:26:00,
2013-03-05 09:31:00,55.0,35.1,30.02,NE,45,3.0,7.0,47,0.00,,,0.00,Weather View 32 v70,2013-03-05 17:31:00,
2013-03-05 09:36:00,54.0,-44.7,30.03,NE,45,1.0,9.0,1,0.00,,,0.00,Weather View 32 v70,2013-03-05 17:36:00,
2013-03-05 09:41:00,53.0,33.3,30.03,NE,45,4.0,10.0,47,0.00,,,0.00,Weather View 32 v70,2013-03-05 17:41:00,
2013-03-05 09:46:00,53.0,33.3,30.03,NE,45,4.0,10.0,47,0.00,,,0.00,Weather View 32 v70,2013-03-05 17:46:00,
2013-03-05 09:51:00,54.0,34.2,30.02,NE,45,3.0,10.0,47,0.00,,,0.00,Weather View 32 v70,2013-03-05 17:51:00,
2013-03-05 09:56:00,54.0,34.2,30.02,NE,45,6.0,10.0,47,0.00,,,0.00,Weather View 32 v70,2013-03-05 17:56:00,
2013-03-05 10:02:00,54.0,34.7,30.02,NE,45,0.0,10.0,48,0.00,,,0.00,Weather View 32 v70,2013-03-05 18:02:00,
2013-03-05 10:07:00,55.0,35.6,30.01,NE,45,6.0,10.0,48,0.00,,,0.00,Weather View 32 v70,2013-03-05 18:07:00,
2013-03-05 10:12:00,56.0,36.0,30.01,NE,45,0.0,10.0,47,0.00,,,0.00,Weather View 32 v70,2013-03-05 18:12:00,
2013-03-05 10:17:00,56.0,35.5,30.01,NE,45,2.0,10.0,46,0.00,,,0.00,Weather View 32 v70,2013-03-05 18:17:00,
2013-03-05 10:22:00,56.0,36.0,30.01,NE,45,0.0,10.0,47,0.00,,,0.00,Weather View 32 v70,2013-03-05 18:22:00,
2013-03-05 10:27:00,56.0,36.0,30.01,NE,45,0.0,10.0,47,0.00,,,0.00,Weather View 32 v70,2013-03-05 18:27:00,
2013-03-05 10:32:00,57.0,-42.9,30.01,SW,225,0.0,11.0,1,0.00,,,0.00,Weather View 32 v70,2013-03-05 18:32:00,
2013-03-05 10:37:00,57.0,35.3,30.01,NE,45,6.0,13.0,44,0.00,,,0.00,Weather View 32 v70,2013-03-05 18:37:00,
2013-03-05 10:42:00,56.0,34.9,30.01,NE,45,9.0,20.0,45,0.00,,,0.00,Weather View 32 v70,2013-03-05 18:42:00,
2013-03-05 10:47:00,55.0,-44.1,30.02,NE,45,14.0,20.0,1,0.00,,,0.00,Weather View 32 v70,2013-03-05 18:47:00,
2013-03-05 10:52:00,55.0,35.1,30.02,SW,225,7.0,20.0,47,0.00,,,0.00,Weather View 32 v70,2013-03-05 18:52:00,
2013-03-05 10:57:00,54.0,34.7,30.01,SW,225,10.0,26.0,48,0.00,,,0.00,Weather View 32 v70,2013-03-05 18:57:00,
2013-03-05 11:07:00,53.0,33.8,30.02,NE,45,10.0,26.0,48,0.00,,,0.00,Weather View 32 v70,2013-03-05 19:07:00,
2013-03-05 11:12:00,53.0,31.6,30.03,NE,45,0.0,26.0,44,0.00,,,0.00,Weather View 32 v70,2013-03-05 19:12:00,
2013-03-05 11:17:00,54.0,34.2,30.01,NE,45,10.0,26.0,47,0.00,,,0.00,Weather View 32 v70,2013-03-05 19:17:00,
2013-03-05 11:22:00,54.0,-44.7,30.01,NE,45,8.0,26.0,1,0.00,,,0.00,Weather View 32 v70,2013-03-05 19:22:00,
2013-03-05 11:27:00,54.0,32.0,30.01,NE,45,15.0,26.0,43,0.00,,,0.00,Weather View 32 v70,2013-03-05 19:27:00,
2013-03-05 11:32:00,53.0,32.2,30.01,NE,45,15.0,26.0,45,0.00,,,0.00,Weather View 32 v70,2013-03-05 19:32:00,
2013-03-05 11:37:00,53.0,29.9,30.01,NE,45,10.0,26.0,41,0.00,,,0.00,Weather View 32 v70,2013-03-05 19:37:00,
2013-03-05 11:42:00,54.0,34.7,30.01,NE,45,9.0,26.0,48,0.00,,,0.00,Weather View 32 v70,2013-03-05 19:42:00,
2013-03-05 11:47:00,53.0,35.3,30.01,NE,45,8.0,26.0,51,0.00,,,0.00,Weather View 32 v70,2013-03-05 19:47:00,
2013-03-05 11:52:00,53.0,33.8,30.01,NE,45,0.0,26.0,48,0.00,,,0.00,Weather View 32 v70,2013-03-05 19:52:00,
2013-03-05 11:57:00,54.0,-44.7,30.01,NE,45,4.0,26.0,1,0.00,,,0.00,Weather View 32 v70,2013-03-05 19:57:00,
2013-03-05 12:02:00,54.0,34.2,30.01,NE,45,7.0,26.0,47,0.00,,,0.00,Weather View 32 v70,2013-03-05 20:02:00,
2013-03-05 12:07:00,55.0,32.3,30.00,NE,45,7.0,23.0,42,0.00,,,0.00,Weather View 32 v70,2013-03-05 20:07:00,
2013-03-05 12:12:00,55.0,35.1,29.99,NE,45,3.0,24.0,47,0.00,,,0.00,Weather View 32 v70,2013-03-05 20:12:00,
2013-03-05 12:17:00,54.0,31.4,29.99,NE,45,7.0,24.0,42,0.00,,,0.00,Weather View 32 v70,2013-03-05 20:17:00,
2013-03-05 12:22:00,55.0,31.7,30.00,NE,45,13.0,24.0,41,0.00,,,0.00,Weather View 32 v70,2013-03-05 20:22:00,
2013-03-05 12:27:00,55.0,34.0,30.00,NE,45,10.0,24.0,45,0.00,,,0.00,Weather View 32 v70,2013-03-05 20:27:00,
2013-03-05 12:32:00,55.0,-44.1,29.99,NE,45,12.0,24.0,1,0.00,,,0.00,Weather View 32 v70,2013-03-05 20:32:00,
2013-03-05 12:37:00,54.0,34.7,29.99,NE,45,12.0,24.0,48,0.00,,,0.00,Weather View 32 v70,2013-03-05 20:37:00,
2013-03-05 12:42:00,54.0,33.1,30.00,NE,45,6.0,24.0,45,0.00,,,0.00,Weather View 32 v70,2013-03-05 20:42:00,
2013-03-05 12:47:00,54.0,36.7,29.99,NE,45,8.0,24.0,52,0.00,,,0.00,Weather View 32 v70,2013-03-05 20:47:00,
2013-03-05 12:52:00,54.0,34.2,29.99,NE,45,16.0,24.0,47,0.00,,,0.00,Weather View 32 v70,2013-03-05 20:52:00,
2013-03-05 12:57:00,54.0,36.2,29.99,NE,45,12.0,24.0,51,0.00,,,0.00,Weather View 32 v70,2013-03-05 20:57:00,
2013-03-05 13:02:00,54.0,31.4,29.99,NE,45,1.0,24.0,42,0.00,,,0.00,Weather View 32 v70,2013-03-05 21:02:00,
2013-03-05 13:07:00,55.0,-44.1,29.98,NE,45,11.0,24.0,1,0.00,,,0.00,Weather View 32 v70,2013-03-05 21:07:00,
2013-03-05 13:12:00,54.0,36.7,29.98,NE,45,0.0,23.0,52,0.00,,,0.00,Weather View 32 v70,2013-03-05 21:12:00,
2013-03-05 13:17:00,55.0,37.7,29.98,NE,45,15.0,23.0,52,0.00,,,0.00,Weather View 32 v70,2013-03-05 21:17:00,
2013-03-05 13:22:00,54.0,37.2,29.97,NE,45,4.0,23.0,53,0.00,,,0.00,Weather View 32 v70,2013-03-05 21:22:00,
2013-03-05 13:27:00,54.0,37.2,29.97,NE,45,6.0,23.0,53,0.00,,,0.00,Weather View 32 v70,2013-03-05 21:27:00,
2013-03-05 13:32:00,54.0,37.2,29.98,NE,45,8.0,23.0,53,0.00,,,0.00,Weather View 32 v70,2013-03-05 21:32:00,
2013-03-05 13:37:00,54.0,36.7,29.97,NE,45,4.0,21.0,52,0.00,,,0.00,Weather View 32 v70,2013-03-05 21:37:00,
2013-03-05 13:42:00,54.0,-44.7,29.97,NE,45,0.0,21.0,1,0.00,,,0.00,Weather View 32 v70,2013-03-05 21:42:00,
2013-03-05 13:47:00,54.0,37.2,29.97,NE,45,4.0,21.0,53,0.00,,,0.00,Weather View 32 v70,2013-03-05 21:47:00,
2013-03-05 13:52:00,54.0,37.2,29.97,NE,45,7.0,21.0,53,0.00,,,0.00,Weather View 32 v70,2013-03-05 21:52:00,
2013-03-05 13:57:00,54.0,36.7,29.97,NE,45,3.0,21.0,52,0.00,,,0.00,Weather View 32 v70,2013-03-05 21:57:00,
2013-03-05 14:02:00,54.0,37.2,29.97,NE,45,15.0,21.0,53,0.00,,,0.00,Weather View 32 v70,2013-03-05 22:02:00,
2013-03-05 14:06:00,54.0,37.2,29.97,NE,45,5.0,21.0,53,0.00,,,0.00,Weather View 32 v70,2013-03-05 22:06:00,
2013-03-05 14:11:00,54.0,37.2,29.97,NE,45,12.0,21.0,53,0.00,,,0.00,Weather View 32 v70,2013-03-05 22:11:00,
2013-03-05 14:16:00,55.0,-44.1,29.96,NE,45,2.0,21.0,1,0.00,,,0.00,Weather View 32 v70,2013-03-05 22:16:00,
2013-03-05 14:21:00,54.0,36.2,29.96,NE,45,0.0,21.0,51,0.00,,,0.00,Weather View 32 v70,2013-03-05 22:21:00,
2013-03-05 14:26:00,54.0,36.2,29.96,NE,45,6.0,21.0,51,0.00,,,0.00,Weather View 32 v70,2013-03-05 22:26:00,
2013-03-05 14:31:00,55.0,37.2,29.95,NE,45,9.0,17.0,51,0.00,,,0.00,Weather View 32 v70,2013-03-05 22:31:00,
2013-03-05 14:36:00,55.0,36.7,29.95,NE,45,5.0,17.0,50,0.00,,,0.00,Weather View 32 v70,2013-03-05 22:36:00,
2013-03-05 14:41:00,56.0,37.1,29.95,NE,45,4.0,17.0,49,0.00,,,0.00,Weather View 32 v70,2013-03-05 22:41:00,
2013-03-05 14:46:00,55.0,36.2,29.95,ENE,67,12.0,17.0,49,0.00,,,0.00,Weather View 32 v70,2013-03-05 22:46:00,
2013-03-05 14:51:00,56.0,-43.5,29.95,SW,225,10.0,17.0,1,0.00,,,0.00,Weather View 32 v70,2013-03-05 22:51:00,
2013-03-05 14:56:00,56.0,26.5,29.95,ENE,67,5.0,17.0,32,0.00,,,0.00,Weather View 32 v70,2013-03-05 22:56:00,
2013-03-05 15:02:00,57.0,36.9,29.94,ENE,67,2.0,17.0,47,0.00,,,0.00,Weather View 32 v70,2013-03-05 23:02:00,
2013-03-05 15:07:00,57.0,33.5,29.93,NE,45,7.0,15.0,41,0.00,,,0.00,Weather View 32 v70,2013-03-05 23:07:00,
2013-03-05 15:12:00,57.0,-42.9,29.94,NE,45,0.0,15.0,1,0.00,,,0.00,Weather View 32 v70,2013-03-05 23:12:00,
2013-03-05 15:17:00,58.0,28.2,29.94,NE,45,2.0,15.0,32,0.00,,,0.00,Weather View 32 v70,2013-03-05 23:17:00,
2013-03-05 15:22:00,59.0,29.1,29.93,SW,225,0.0,15.0,32,0.00,,,0.00,Weather View 32 v70,2013-03-05 23:22:00,
2013-03-05 15:27:00,59.0,38.8,29.93,SW,225,10.0,14.0,47,0.00,,,0.00,Weather View 32 v70,2013-03-05 23:27:00,
2013-03-05 15:32:00,59.0,39.3,29.93,SE,135,5.0,14.0,48,0.00,,,0.00,Weather View 32 v70,2013-03-05 23:32:00,
2013-03-05 15:37:00,60.0,30.0,29.92,ENE,67,6.0,14.0,32,0.00,,,0.00,Weather View 32 v70,2013-03-05 23:37:00,
2013-03-05 15:47:00,59.0,39.8,29.92,SW,225,7.0,14.0,49,0.00,,,0.00,Weather View 32 v70,2013-03-05 23:47:00,
2013-03-05 15:50:00,59.0,39.8,29.92,SW,225,7.0,14.0,49,0.00,,,0.00,Weather View 32 v70,2013-03-05 23:50:00,
2013-03-05 15:57:00,60.0,40.7,29.91,SE,135,6.0,13.0,49,0.00,,,0.00,Weather View 32 v70,2013-03-05 23:57:00,
2013-03-05 16:07:00,60.0,35.6,29.91,SE,135,3.0,13.0,40,0.00,,,0.00,Weather View 32 v70,2013-03-06 00:07:00,
2013-03-05 16:12:00,59.0,38.8,29.91,NE,45,9.0,15.0,47,0.00,,,0.00,Weather View 32 v70,2013-03-06 00:12:00,
2013-03-05 16:17:00,58.0,39.4,29.91,SE,135,3.0,17.0,50,0.00,,,0.00,Weather View 32 v70,2013-03-06 00:17:00,
2013-03-05 16:22:00,58.0,36.2,29.91,SW,225,9.0,17.0,44,0.00,,,0.00,Weather View 32 v70,2013-03-06 00:22:00,
2013-03-05 16:27:00,57.0,33.5,29.91,NE,45,5.0,17.0,41,0.00,,,0.00,Weather View 32 v70,2013-03-06 00:27:00,
2013-03-05 16:32:00,57.0,34.1,29.91,SE,135,0.0,17.0,42,0.00,,,0.00,Weather View 32 v70,2013-03-06 00:32:00,
2013-03-05 16:37:00,57.0,-42.9,29.91,NE,45,1.0,17.0,1,0.00,,,0.00,Weather View 32 v70,2013-03-06 00:37:00,
2013-03-05 16:42:00,57.0,36.4,29.91,NE,45,6.0,17.0,46,0.00,,,0.00,Weather View 32 v70,2013-03-06 00:42:00,
2013-03-05 16:47:00,56.0,35.5,29.91,NE,45,0.0,17.0,46,0.00,,,0.00,Weather View 32 v70,2013-03-06 00:47:00,
2013-03-05 16:51:00,56.0,35.5,29.91,NE,45,0.0,17.0,46,0.00,,,0.00,Weather View 32 v70,2013-03-06 00:51:00,
2013-03-05 16:57:00,56.0,39.1,29.91,ENE,67,0.0,17.0,53,0.00,,,0.00,Weather View 32 v70,2013-03-06 00:57:00,
2013-03-05 17:07:00,55.0,38.6,29.90,NE,45,1.0,17.0,54,0.00,,,0.00,Weather View 32 v70,2013-03-06 01:07:00,
2013-03-05 17:12:00,55.0,-44.1,29.91,NE,45,0.0,17.0,1,0.00,,,0.00,Weather View 32 v70,2013-03-06 01:12:00,
2013-03-05 17:17:00,55.0,35.6,29.91,SW,225,0.0,15.0,48,0.00,,,0.00,Weather View 32 v70,2013-03-06 01:17:00,
2013-03-05 17:22:00,55.0,37.7,29.90,NE,45,4.0,17.0,52,0.00,,,0.00,Weather View 32 v70,2013-03-06 01:22:00,
2013-03-05 17:27:00,54.0,39.1,29.90,NE,45,7.0,17.0,57,0.00,,,0.00,Weather View 32 v70,2013-03-06 01:27:00,
2013-03-05 17:32:00,54.0,39.1,29.90,SE,135,0.0,17.0,57,0.00,,,0.00,Weather View 32 v70,2013-03-06 01:32:00,
2013-03-05 17:37:00,53.0,39.0,29.91,NE,45,0.0,17.0,59,0.00,,,0.00,Weather View 32 v70,2013-03-06 01:37:00,
2013-03-05 17:42:00,53.0,39.0,29.91,SW,225,0.0,17.0,59,0.00,,,0.00,Weather View 32 v70,2013-03-06 01:42:00,
2013-03-05 17:47:00,53.0,31.6,29.91,SW,225,0.0,17.0,44,0.00,,,0.00,Weather View 32 v70,2013-03-06 01:47:00,
2013-03-05 17:51:00,53.0,31.6,29.91,SW,225,0.0,17.0,44,0.00,,,0.00,Weather View 32 v70,2013-03-06 01:51:00,
2013-03-05 17:52:00,53.0,39.9,29.91,ENE,67,5.0,17.0,61,0.00,,,0.00,Weather View 32 v70,2013-03-06 01:52:00,
2013-03-05 17:57:00,53.0,39.9,29.90,ESE,112,11.0,17.0,61,0.00,,,0.00,Weather View 32 v70,2013-03-06 01:57:00,
2013-03-05 18:02:00,53.0,39.9,29.90,NE,45,3.0,17.0,61,0.00,,,0.00,Weather View 32 v70,2013-03-06 02:02:00,
2013-03-05 18:07:00,53.0,39.9,29.90,NE,45,0.0,17.0,61,0.00,,,0.00,Weather View 32 v70,2013-03-06 02:07:00,
2013-03-05 18:12:00,52.0,38.9,29.90,NE,45,0.0,17.0,61,0.00,,,0.00,Weather View 32 v70,2013-03-06 02:12:00,
2013-03-05 18:17:00,52.0,39.8,29.90,NE,45,4.0,17.0,63,0.00,,,0.00,Weather View 32 v70,2013-03-06 02:17:00,
2013-03-05 18:22:00,52.0,40.2,29.91,NE,45,3.0,17.0,64,0.00,,,0.00,Weather View 32 v70,2013-03-06 02:22:00,
2013-03-05 18:27:00,52.0,40.6,29.91,ENE,67,3.0,15.0,65,0.00,,,0.00,Weather View 32 v70,2013-03-06 02:27:00,
2013-03-05 18:32:00,52.0,41.0,29.91,NE,45,2.0,15.0,66,0.00,,,0.00,Weather View 32 v70,2013-03-06 02:32:00,
2013-03-05 18:37:00,52.0,41.4,29.90,NNE,22,10.0,15.0,67,0.00,,,0.00,Weather View 32 v70,2013-03-06 02:37:00,
2013-03-05 18:42:00,52.0,41.7,29.90,ENE,67,10.0,15.0,68,0.00,,,0.00,Weather View 32 v70,2013-03-06 02:42:00,
2013-03-05 18:47:00,52.0,42.1,29.91,NE,45,10.0,19.0,69,0.00,,,0.00,Weather View 32 v70,2013-03-06 02:47:00,
2013-03-05 18:51:00,52.0,42.1,29.91,NE,45,10.0,19.0,69,0.00,,,0.00,Weather View 32 v70,2013-03-06 02:51:00,
2013-03-05 18:52:00,51.0,41.5,29.91,NE,45,7.0,19.0,70,0.00,,,0.00,Weather View 32 v70,2013-03-06 02:52:00,
2013-03-05 18:56:00,51.0,42.3,29.91,NE,45,9.0,19.0,72,0.00,,,0.00,Weather View 32 v70,2013-03-06 02:56:00,
2013-03-05 19:01:00,51.0,42.3,29.91,ENE,67,0.0,19.0,72,0.00,,,0.00,Weather View 32 v70,2013-03-06 03:01:00,
2013-03-05 19:06:00,51.0,42.3,29.90,NE,45,5.0,19.0,72,0.00,,,0.00,Weather View 32 v70,2013-03-06 03:06:00,
2013-03-05 19:11:00,51.0,42.6,29.90,NE,45,0.0,19.0,73,0.00,,,0.00,Weather View 32 v70,2013-03-06 03:11:00,
2013-03-05 19:21:00,52.0,44.0,29.90,NE,45,9.0,19.0,74,0.00,,,0.00,Weather View 32 v70,2013-03-06 03:21:00,
2013-03-05 19:26:00,52.0,44.3,29.89,NE,45,4.0,19.0,75,0.00,,,0.00,Weather View 32 v70,2013-03-06 03:26:00,
2013-03-05 19:31:00,52.0,45.0,29.89,NE,45,4.0,19.0,77,0.00,,,0.00,Weather View 32 v70,2013-03-06 03:31:00,
2013-03-05 19:36:00,52.0,44.3,29.89,NE,45,8.0,19.0,75,0.00,,,0.00,Weather View 32 v70,2013-03-06 03:36:00,
2013-03-05 19:41:00,52.0,44.3,29.89,NE,45,8.0,19.0,75,0.00,,,0.00,Weather View 32 v70,2013-03-06 03:41:00,
2013-03-05 19:46:00,52.0,45.0,29.88,NE,45,3.0,18.0,77,0.00,,,0.00,Weather View 32 v70,2013-03-06 03:46:00,
2013-03-05 19:52:00,52.0,44.3,29.88,ENE,67,7.0,20.0,75,0.00,,,0.00,Weather View 32 v70,2013-03-06 03:52:00,
2013-03-05 19:56:00,52.0,44.3,29.88,NE,45,2.0,20.0,75,0.00,,,0.00,Weather View 32 v70,2013-03-06 03:56:00,
2013-03-05 19:58:00,52.0,44.3,29.88,NE,45,9.0,20.0,75,0.00,,,0.00,Weather View 32 v70,2013-03-06 03:58:00,
2013-03-05 20:02:00,52.0,44.3,29.88,NE,45,0.0,20.0,75,0.00,,,0.00,Weather View 32 v70,2013-03-06 04:02:00,
2013-03-05 20:07:00,52.0,44.3,29.88,ENE,67,0.0,20.0,75,0.00,,,0.00,Weather View 32 v70,2013-03-06 04:07:00,
2013-03-05 20:12:00,52.0,44.3,29.88,NE,45,0.0,20.0,75,0.00,,,0.00,Weather View 32 v70,2013-03-06 04:12:00,
2013-03-05 20:17:00,52.0,44.3,29.88,ENE,67,1.0,20.0,75,0.00,,,0.00,Weather View 32 v70,2013-03-06 04:17:00,
2013-03-05 20:22:00,52.0,44.3,29.88,NE,45,6.0,20.0,75,0.00,,,0.00,Weather View 32 v70,2013-03-06 04:22:00,
2013-03-05 20:27:00,52.0,44.3,29.88,NE,45,5.0,20.0,75,0.00,,,0.00,Weather View 32 v70,2013-03-06 04:27:00,
2013-03-05 20:32:00,52.0,44.3,29.88,NE,45,0.0,20.0,75,0.00,,,0.00,Weather View 32 v70,2013-03-06 04:32:00,
2013-03-05 20:37:00,52.0,44.3,29.88,NE,45,5.0,20.0,75,0.00,,,0.00,Weather View 32 v70,2013-03-06 04:37:00,
2013-03-05 20:42:00,52.0,45.3,29.88,NE,45,6.0,20.0,78,0.00,,,0.00,Weather View 32 v70,2013-03-06 04:42:00,
2013-03-05 20:47:00,51.0,43.3,29.88,NE,45,1.0,20.0,75,0.00,,,0.00,Weather View 32 v70,2013-03-06 04:47:00,
2013-03-05 20:52:00,51.0,43.3,29.89,NE,45,5.0,17.0,75,0.00,,,0.00,Weather View 32 v70,2013-03-06 04:52:00,
2013-03-05 20:57:00,51.0,43.3,29.88,ENE,67,0.0,17.0,75,0.00,,,0.00,Weather View 32 v70,2013-03-06 04:57:00,
2013-03-05 21:02:00,50.0,42.7,29.88,ENE,67,9.0,17.0,76,0.00,,,0.00,Weather View 32 v70,2013-03-06 05:02:00,
2013-03-05 21:07:00,50.0,43.1,29.88,NE,45,4.0,17.0,77,0.01,,,0.01,Weather View 32 v70,2013-03-06 05:07:00,
2013-03-05 21:12:00,50.0,43.1,29.88,ENE,67,8.0,17.0,77,0.01,,,0.01,Weather View 32 v70,2013-03-06 05:12:00,
2013-03-05 21:22:00,50.0,43.1,29.89,ENE,67,2.0,20.0,77,0.02,,,0.02,Weather View 32 v70,2013-03-06 05:22:00,
2013-03-05 21:27:00,49.0,42.4,29.88,NE,45,2.0,20.0,78,0.02,,,0.02,Weather View 32 v70,2013-03-06 05:27:00,
2013-03-05 21:32:00,49.0,42.4,29.88,NE,45,9.0,20.0,78,0.02,,,0.02,Weather View 32 v70,2013-03-06 05:32:00,
2013-03-05 21:37:00,49.0,42.4,29.88,NE,45,7.0,20.0,78,0.03,,,0.03,Weather View 32 v70,2013-03-06 05:37:00,
2013-03-05 21:42:00,49.0,42.4,29.89,NE,45,1.0,20.0,78,0.04,,,0.04,Weather View 32 v70,2013-03-06 05:42:00,
2013-03-05 21:47:00,49.0,42.4,29.89,NE,45,8.0,20.0,78,0.05,,,0.05,Weather View 32 v70,2013-03-06 05:47:00,
2013-03-05 21:52:00,49.0,43.1,29.89,ENE,67,5.0,20.0,80,0.05,,,0.05,Weather View 32 v70,2013-03-06 05:52:00,
2013-03-05 21:53:00,49.0,43.1,29.89,ENE,67,5.0,20.0,80,0.05,,,0.05,Weather View 32 v70,2013-03-06 05:53:00,
2013-03-05 22:02:00,49.0,42.4,29.88,NE,45,12.0,20.0,78,0.05,,,0.05,Weather View 32 v70,2013-03-06 06:02:00,
2013-03-05 22:07:00,49.0,42.4,29.88,ENE,67,2.0,20.0,78,0.04,,,0.05,Weather View 32 v70,2013-03-06 06:07:00,
2013-03-05 22:12:00,49.0,42.4,29.88,NE,45,2.0,20.0,78,0.04,,,0.05,Weather View 32 v70,2013-03-06 06:12:00,
2013-03-05 22:17:00,49.0,42.4,29.89,ENE,67,4.0,19.0,78,0.04,,,0.05,Weather View 32 v70,2013-03-06 06:17:00,
2013-03-05 22:22:00,49.0,42.4,29.89,NE,45,3.0,19.0,78,0.03,,,0.05,Weather View 32 v70,2013-03-06 06:22:00,
2013-03-05 22:27:00,49.0,43.4,29.89,NE,45,1.0,19.0,81,0.03,,,0.05,Weather View 32 v70,2013-03-06 06:27:00,
2013-03-05 22:32:00,49.0,42.4,29.89,NE,45,0.0,19.0,78,0.03,,,0.05,Weather View 32 v70,2013-03-06 06:32:00,
2013-03-05 22:37:00,49.0,42.4,29.89,ENE,67,3.0,22.0,78,0.02,,,0.05,Weather View 32 v70,2013-03-06 06:37:00,
2013-03-05 22:42:00,50.0,43.4,29.88,NE,45,4.0,22.0,78,0.01,,,0.05,Weather View 32 v70,2013-03-06 06:42:00,
2013-03-05 22:47:00,50.0,43.4,29.88,NE,45,10.0,22.0,78,0.00,,,0.05,Weather View 32 v70,2013-03-06 06:47:00,
2013-03-05 22:52:00,50.0,43.4,29.88,ENE,67,7.0,22.0,78,0.00,,,0.05,Weather View 32 v70,2013-03-06 06:52:00,
2013-03-05 22:54:00,50.0,43.4,29.88,ENE,67,7.0,22.0,78,0.00,,,0.05,Weather View 32 v70,2013-03-06 06:54:00,
2013-03-05 23:02:00,50.0,44.1,29.88,ENE,67,0.0,23.0,80,0.00,,,0.05,Weather View 32 v70,2013-03-06 07:02:00,
2013-03-05 23:12:00,50.0,43.1,29.88,NE,45,6.0,23.0,77,0.00,,,0.05,Weather View 32 v70,2013-03-06 07:12:00,
2013-03-05 23:17:00,50.0,43.4,29.88,ENE,67,10.0,23.0,78,0.00,,,0.05,Weather View 32 v70,2013-03-06 07:17:00,
2013-03-05 23:22:00,50.0,43.4,29.88,NE,45,8.0,23.0,78,0.00,,,0.05,Weather View 32 v70,2013-03-06 07:22:00,
2013-03-05 23:27:00,50.0,43.4,29.88,NE,45,6.0,23.0,78,0.01,,,0.06,Weather View 32 v70,2013-03-06 07:27:00,
2013-03-05 23:32:00,49.0,42.4,29.88,NE,45,5.0,23.0,78,0.02,,,0.07,Weather View 32 v70,2013-03-06 07:32:00,
2013-03-05 23:37:00,49.0,43.1,29.88,ENE,67,9.0,23.0,80,0.02,,,0.07,Weather View 32 v70,2013-03-06 07:37:00,
2013-03-05 23:42:00,49.0,42.4,29.88,ENE,67,2.0,23.0,78,0.02,,,0.07,Weather View 32 v70,2013-03-06 07:42:00,
2013-03-05 23:47:00,49.0,42.4,29.89,NE,45,6.0,23.0,78,0.03,,,0.08,Weather View 32 v70,2013-03-06 07:47:00,
2013-03-05 23:52:00,49.0,42.4,29.89,NE,45,0.0,23.0,78,0.03,,,0.08,Weather View 32 v70,2013-03-06 07:52:00,
2013-03-05 23:57:00,49.0,42.4,29.89,NE,45,3.0,23.0,78,0.04,,,0.00,Weather View 32 v70,2013-03-06 07:57:00,